Time,TemperatureF,DewpointF,PressureIn,WindDirection,WindDirectionDegrees,WindSpeedMPH,WindSpeedGustMPH,Humidity,HourlyPrecipIn,Conditions,Clouds,dailyrainin,SoftwareType,DateUTC
2013-10-24 00:00:00,42.1,0.0,29.59,WNW,293,1.6,2.5,0,0.00,,,0.00,WUHU216HW,2013-10-24 04:00:00,
2013-10-24 00:01:00,42.1,0.0,29.58,WSW,248,3.1,3.1,0,0.00,,,0.00,WUHU216HW,2013-10-24 04:01:00,
2013-10-24 00:06:00,42.3,0.0,29.59,WSW,248,1.8,4.7,0,0.00,,,0.00,WUHU216HW,2013-10-24 04:06:00,
2013-10-24 00:11:00,42.5,0.0,29.59,WNW,293,1.8,4.7,0,0.00,,,0.00,WUHU216HW,2013-10-24 04:11:00,
2013-10-24 00:16:00,42.5,0.0,29.58,WSW,248,1.6,2.5,0,0.00,,,0.00,WUHU216HW,2013-10-24 04:16:00,
2013-10-24 00:21:00,42.8,0.0,29.59,WNW,293,1.1,4.0,0,0.00,,,0.00,WUHU216HW,2013-10-24 04:21:00,
2013-10-24 00:26:00,42.8,0.0,29.59,WSW,248,1.1,4.0,0,0.00,,,0.00,WUHU216HW,2013-10-24 04:26:00,
2013-10-24 00:31:00,43.0,0.0,29.59,WSW,248,2.9,4.0,0,0.00,,,0.00,WUHU216HW,2013-10-24 04:31:00,
2013-10-24 00:36:00,43.0,0.0,29.59,South,180,0.4,4.0,0,0.00,,,0.00,WUHU216HW,2013-10-24 04:36:00,
2013-10-24 00:41:00,43.0,0.0,29.59,WNW,293,2.5,4.0,0,0.00,,,0.00,WUHU216HW,2013-10-24 04:41:00,
2013-10-24 00:46:00,43.2,0.0,29.59,West,270,0.7,4.0,0,0.00,,,0.00,WUHU216HW,2013-10-24 04:46:00,
2013-10-24 00:51:00,43.0,0.0,29.59,WSW,248,0.4,2.9,0,0.00,,,0.00,WUHU216HW,2013-10-24 04:51:00,
2013-10-24 00:56:00,43.0,0.0,29.59,West,270,0.7,2.9,0,0.00,,,0.00,WUHU216HW,2013-10-24 04:56:00,
2013-10-24 01:01:00,42.8,0.0,29.59,WNW,293,2.0,2.7,0,0.00,,,0.00,WUHU216HW,2013-10-24 05:01:00,
2013-10-24 01:06:00,42.8,0.0,29.59,West,270,0.4,2.9,0,0.00,,,0.00,WUHU216HW,2013-10-24 05:06:00,
2013-10-24 01:11:00,42.7,0.0,29.60,WNW,293,0.4,2.9,0,0.00,,,0.00,WUHU216HW,2013-10-24 05:11:00,
2013-10-24 01:16:00,42.5,0.0,29.60,West,270,2.0,2.5,0,0.00,,,0.00,WUHU216HW,2013-10-24 05:16:00,
2013-10-24 01:21:00,42.3,0.0,29.60,WNW,293,0.7,2.5,0,0.00,,,0.00,WUHU216HW,2013-10-24 05:21:00,
2013-10-24 01:26:00,42.1,0.0,29.60,West,270,0.9,2.5,0,0.00,,,0.00,WUHU216HW,2013-10-24 05:26:00,
2013-10-24 01:31:00,42.1,0.0,29.60,WNW,293,1.3,2.5,0,0.00,,,0.00,WUHU216HW,2013-10-24 05:31:00,
2013-10-24 01:36:00,42.1,0.0,29.60,NW,315,1.8,3.4,0,0.00,,,0.00,WUHU216HW,2013-10-24 05:36:00,
2013-10-24 01:41:00,42.1,0.0,29.60,WNW,293,1.1,3.4,0,0.00,,,0.00,WUHU216HW,2013-10-24 05:41:00,
2013-10-24 01:46:00,42.1,0.0,29.60,West,270,0.4,3.4,0,0.00,,,0.00,WUHU216HW,2013-10-24 05:46:00,
2013-10-24 01:51:00,42.1,0.0,29.60,WNW,293,0.0,2.0,0,0.00,,,0.00,WUHU216HW,2013-10-24 05:51:00,
2013-10-24 01:56:00,42.1,0.0,29.60,West,270,0.0,1.3,0,0.00,,,0.00,WUHU216HW,2013-10-24 05:56:00,
2013-10-24 02:01:00,42.1,0.0,29.60,West,270,0.0,0.7,0,0.00,,,0.00,WUHU216HW,2013-10-24 06:01:00,
2013-10-24 02:06:00,41.9,0.0,29.60,WSW,248,0.4,0.7,0,0.00,,,0.00,WUHU216HW,2013-10-24 06:06:00,
2013-10-24 02:11:00,41.8,0.0,29.60,SW,225,0.0,0.7,0,0.00,,,0.00,WUHU216HW,2013-10-24 06:11:00,
2013-10-24 02:16:00,41.6,0.0,29.61,SW,225,0.4,0.7,0,0.00,,,0.00,WUHU216HW,2013-10-24 06:16:00,
2013-10-24 02:21:00,41.4,0.0,29.61,WNW,293,0.9,0.9,0,0.00,,,0.00,WUHU216HW,2013-10-24 06:21:00,
2013-10-24 02:26:00,41.4,0.0,29.60,WNW,293,0.4,0.9,0,0.00,,,0.00,WUHU216HW,2013-10-24 06:26:00,
2013-10-24 02:31:00,41.2,0.0,29.61,NW,315,1.3,1.6,0,0.00,,,0.00,WUHU216HW,2013-10-24 06:31:00,
2013-10-24 02:36:00,41.0,0.0,29.61,WNW,293,0.4,1.6,0,0.00,,,0.00,WUHU216HW,2013-10-24 06:36:00,
2013-10-24 02:41:00,40.7,0.0,29.61,WNW,293,0.0,1.3,0,0.00,,,0.00,WUHU216HW,2013-10-24 06:41:00,
2013-10-24 02:46:00,40.5,0.0,29.61,WNW,293,0.0,0.9,0,0.00,,,0.00,WUHU216HW,2013-10-24 06:46:00,
2013-10-24 02:51:00,40.1,0.0,29.61,WNW,293,0.0,0.4,0,0.00,,,0.00,WUHU216HW,2013-10-24 06:51:00,
2013-10-24 02:56:00,40.0,0.0,29.61,West,270,0.0,0.4,0,0.00,,,0.00,WUHU216HW,2013-10-24 06:56:00,
2013-10-24 03:01:00,39.6,0.0,29.61,WSW,248,0.4,0.7,0,0.00,,,0.00,WUHU216HW,2013-10-24 07:01:00,
2013-10-24 03:06:00,39.2,0.0,29.61,SW,225,0.4,1.8,0,0.00,,,0.00,WUHU216HW,2013-10-24 07:06:00,
2013-10-24 03:11:00,39.1,0.0,29.61,SW,225,0.0,1.8,0,0.00,,,0.00,WUHU216HW,2013-10-24 07:11:00,
2013-10-24 03:16:00,38.9,0.0,29.61,West,270,0.2,1.1,0,0.00,,,0.00,WUHU216HW,2013-10-24 07:16:00,
2013-10-24 03:21:00,38.7,0.0,29.61,WNW,293,0.0,1.1,0,0.00,,,0.00,WUHU216HW,2013-10-24 07:21:00,
2013-10-24 03:26:00,38.5,0.0,29.61,WNW,293,0.0,1.1,0,0.00,,,0.00,WUHU216HW,2013-10-24 07:26:00,
2013-10-24 03:31:00,38.2,0.0,29.61,WNW,293,0.0,0.7,0,0.00,,,0.00,WUHU216HW,2013-10-24 07:31:00,
2013-10-24 03:36:00,38.0,0.0,29.61,NW,315,0.0,0.4,0,0.00,,,0.00,WUHU216HW,2013-10-24 07:36:00,
2013-10-24 03:41:00,37.8,0.0,29.61,NW,315,0.0,0.4,0,0.00,,,0.00,WUHU216HW,2013-10-24 07:41:00,
2013-10-24 03:46:00,37.4,0.0,29.61,NNW,338,0.4,0.4,0,0.00,,,0.00,WUHU216HW,2013-10-24 07:46:00,
2013-10-24 03:51:00,36.9,0.0,29.61,NNW,338,0.0,0.4,0,0.00,,,0.00,WUHU216HW,2013-10-24 07:51:00,
2013-10-24 03:56:00,36.5,0.0,29.62,NW,315,0.0,0.4,0,0.00,,,0.00,WUHU216HW,2013-10-24 07:56:00,
2013-10-24 04:01:00,36.4,0.0,29.62,NW,315,0.0,0.0,0,0.00,,,0.00,WUHU216HW,2013-10-24 08:01:00,
2013-10-24 04:06:00,36.0,0.0,29.62,WNW,293,0.0,1.3,0,0.00,,,0.00,WUHU216HW,2013-10-24 08:06:00,
2013-10-24 04:11:00,35.8,0.0,29.63,SW,225,0.0,3.1,0,0.00,,,0.00,WUHU216HW,2013-10-24 08:11:00,
2013-10-24 04:16:00,35.6,0.0,29.63,WNW,293,0.0,3.1,0,0.00,,,0.00,WUHU216HW,2013-10-24 08:16:00,
2013-10-24 04:21:00,35.6,0.0,29.63,NW,315,1.6,1.6,0,0.00,,,0.00,WUHU216HW,2013-10-24 08:21:00,
2013-10-24 04:26:00,35.6,0.0,29.63,WSW,248,0.9,3.6,0,0.00,,,0.00,WUHU216HW,2013-10-24 08:26:00,
2013-10-24 04:31:00,35.8,0.0,29.64,WNW,293,0.4,3.6,0,0.00,,,0.00,WUHU216HW,2013-10-24 08:31:00,
2013-10-24 04:36:00,36.0,0.0,29.64,West,270,1.6,2.7,0,0.00,,,0.00,WUHU216HW,2013-10-24 08:36:00,
2013-10-24 04:41:00,36.4,0.0,29.64,WSW,248,2.5,2.7,0,0.00,,,0.00,WUHU216HW,2013-10-24 08:41:00,
2013-10-24 04:46:00,36.5,0.0,29.64,West,270,2.0,4.0,0,0.00,,,0.00,WUHU216HW,2013-10-24 08:46:00,
2013-10-24 04:50:00,36.9,0.0,29.64,WNW,293,1.6,4.0,0,0.00,,,0.00,WUHU216HW,2013-10-24 08:50:00,
2013-10-24 04:55:00,37.1,0.0,29.64,WSW,248,1.8,3.4,0,0.00,,,0.00,WUHU216HW,2013-10-24 08:55:00,
2013-10-24 05:01:00,37.8,0.0,29.64,WSW,248,0.7,4.3,0,0.00,,,0.00,WUHU216HW,2013-10-24 09:01:00,
2013-10-24 05:06:00,38.0,0.0,29.65,SW,225,1.8,4.3,0,0.00,,,0.00,WUHU216HW,2013-10-24 09:06:00,
2013-10-24 05:11:00,38.2,0.0,29.65,NW,315,1.1,4.3,0,0.00,,,0.00,WUHU216HW,2013-10-24 09:11:00,
2013-10-24 05:16:00,38.2,0.0,29.65,WSW,248,1.1,4.3,0,0.00,,,0.00,WUHU216HW,2013-10-24 09:16:00,
2013-10-24 05:21:00,38.2,0.0,29.66,West,270,1.1,3.1,0,0.00,,,0.00,WUHU216HW,2013-10-24 09:21:00,
2013-10-24 05:26:00,38.0,0.0,29.66,SW,225,1.3,1.8,0,0.00,,,0.00,WUHU216HW,2013-10-24 09:26:00,
2013-10-24 05:31:00,37.8,0.0,29.66,SW,225,0.9,3.1,0,0.00,,,0.00,WUHU216HW,2013-10-24 09:31:00,
2013-10-24 05:36:00,37.4,0.0,29.66,West,270,0.9,3.1,0,0.00,,,0.00,WUHU216HW,2013-10-24 09:36:00,
2013-10-24 05:41:00,37.1,0.0,29.66,SW,225,2.5,3.1,0,0.00,,,0.00,WUHU216HW,2013-10-24 09:41:00,
2013-10-24 05:45:00,37.1,0.0,29.66,West,270,1.1,3.6,0,0.00,,,0.00,WUHU216HW,2013-10-24 09:45:00,
2013-10-24 05:50:00,36.9,0.0,29.67,SW,225,3.1,6.0,0,0.00,,,0.00,WUHU216HW,2013-10-24 09:50:00,
2013-10-24 05:55:00,36.7,0.0,29.67,WNW,293,2.7,6.0,0,0.00,,,0.00,WUHU216HW,2013-10-24 09:55:00,
2013-10-24 06:00:00,36.5,0.0,29.67,West,270,3.4,5.4,0,0.00,,,0.00,WUHU216HW,2013-10-24 10:00:00,
2013-10-24 06:05:00,36.4,0.0,29.67,West,270,0.4,3.4,0,0.00,,,0.00,WUHU216HW,2013-10-24 10:05:00,
2013-10-24 06:10:00,36.2,0.0,29.67,West,270,0.4,4.0,0,0.00,,,0.00,WUHU216HW,2013-10-24 10:10:00,
2013-10-24 06:15:00,36.4,0.0,29.67,WSW,248,2.9,4.3,0,0.00,,,0.00,WUHU216HW,2013-10-24 10:15:00,
2013-10-24 06:20:00,36.4,0.0,29.67,West,270,1.6,5.1,0,0.00,,,0.00,WUHU216HW,2013-10-24 10:20:00,
2013-10-24 06:25:00,36.4,0.0,29.67,West,270,6.5,6.5,0,0.00,,,0.00,WUHU216HW,2013-10-24 10:25:00,
2013-10-24 06:30:00,36.5,0.0,29.68,NW,315,1.6,6.5,0,0.00,,,0.00,WUHU216HW,2013-10-24 10:30:00,
2013-10-24 06:35:00,36.9,0.0,29.68,SSW,203,2.2,6.5,0,0.00,,,0.00,WUHU216HW,2013-10-24 10:35:00,
2013-10-24 06:40:00,37.1,0.0,29.68,WNW,293,1.1,6.0,0,0.00,,,0.00,WUHU216HW,2013-10-24 10:40:00,
2013-10-24 06:45:00,37.1,0.0,29.68,West,270,0.9,6.0,0,0.00,,,0.00,WUHU216HW,2013-10-24 10:45:00,
2013-10-24 06:50:00,36.7,0.0,29.68,West,270,0.4,3.4,0,0.00,,,0.00,WUHU216HW,2013-10-24 10:50:00,
2013-10-24 06:55:00,36.4,0.0,29.69,SW,225,0.9,2.0,0,0.00,,,0.00,WUHU216HW,2013-10-24 10:55:00,
2013-10-24 07:00:00,35.8,0.0,29.69,WSW,248,0.4,1.8,0,0.00,,,0.00,WUHU216HW,2013-10-24 11:00:00,
2013-10-24 07:05:00,35.5,0.0,29.69,WSW,248,0.7,3.1,0,0.00,,,0.00,WUHU216HW,2013-10-24 11:05:00,
2013-10-24 07:10:00,35.1,0.0,29.69,SSE,158,0.7,3.1,0,0.00,,,0.00,WUHU216HW,2013-10-24 11:10:00,
2013-10-24 07:15:00,34.9,0.0,29.69,SW,225,2.5,4.7,0,0.00,,,0.00,WUHU216HW,2013-10-24 11:15:00,
2013-10-24 07:20:00,34.7,0.0,29.69,West,270,1.1,4.7,0,0.00,,,0.00,WUHU216HW,2013-10-24 11:20:00,
2013-10-24 07:25:00,34.6,0.0,29.69,WSW,248,3.4,5.4,0,0.00,,,0.00,WUHU216HW,2013-10-24 11:25:00,
2013-10-24 07:30:00,34.6,0.0,29.69,West,270,1.1,5.4,0,0.00,,,0.00,WUHU216HW,2013-10-24 11:30:00,
2013-10-24 07:35:00,34.7,0.0,29.70,WNW,293,1.8,5.1,0,0.00,,,0.00,WUHU216HW,2013-10-24 11:35:00,
2013-10-24 07:40:00,34.9,0.0,29.70,WSW,248,3.6,5.1,0,0.00,,,0.00,WUHU216HW,2013-10-24 11:40:00,
2013-10-24 07:45:00,35.3,0.0,29.70,WNW,293,2.5,4.3,0,0.00,,,0.00,WUHU216HW,2013-10-24 11:45:00,
2013-10-24 07:50:00,35.6,0.0,29.70,West,270,2.9,4.3,0,0.00,,,0.00,WUHU216HW,2013-10-24 11:50:00,
2013-10-24 07:55:00,35.8,0.0,29.70,WNW,293,2.5,4.0,0,0.00,,,0.00,WUHU216HW,2013-10-24 11:55:00,
2013-10-24 08:00:00,36.0,0.0,29.71,SW,225,3.1,3.1,0,0.00,,,0.00,WUHU216HW,2013-10-24 12:00:00,
2013-10-24 08:05:00,36.2,0.0,29.71,West,270,2.5,3.1,0,0.00,,,0.00,WUHU216HW,2013-10-24 12:05:00,
2013-10-24 08:10:00,36.4,0.0,29.71,West,270,2.7,6.3,0,0.00,,,0.00,WUHU216HW,2013-10-24 12:10:00,
2013-10-24 08:15:00,36.9,0.0,29.71,SSW,203,1.8,6.3,0,0.00,,,0.00,WUHU216HW,2013-10-24 12:15:00,
2013-10-24 08:20:00,37.1,0.0,29.71,NW,315,2.5,4.9,0,0.00,,,0.00,WUHU216HW,2013-10-24 12:20:00,
2013-10-24 08:25:00,37.4,0.0,29.71,SSW,203,1.8,4.9,0,0.00,,,0.00,WUHU216HW,2013-10-24 12:25:00,
2013-10-24 08:30:00,38.2,0.0,29.72,SSW,203,2.7,6.3,0,0.00,,,0.00,WUHU216HW,2013-10-24 12:30:00,
2013-10-24 08:35:00,38.5,0.0,29.72,WSW,248,2.9,6.3,0,0.00,,,0.00,WUHU216HW,2013-10-24 12:35:00,
2013-10-24 08:40:00,39.1,0.0,29.72,WSW,248,1.1,6.9,0,0.00,,,0.00,WUHU216HW,2013-10-24 12:40:00,
2013-10-24 08:45:00,39.4,0.0,29.72,WSW,248,2.7,7.6,0,0.00,,,0.00,WUHU216HW,2013-10-24 12:45:00,
2013-10-24 08:50:00,40.0,0.0,29.72,WSW,248,2.5,7.6,0,0.00,,,0.00,WUHU216HW,2013-10-24 12:50:00,
2013-10-24 08:55:00,40.7,0.0,29.72,SW,225,7.8,8.1,0,0.00,,,0.00,WUHU216HW,2013-10-24 12:55:00,
2013-10-24 09:00:00,41.0,0.0,29.72,WSW,248,6.3,8.5,0,0.00,,,0.00,WUHU216HW,2013-10-24 13:00:00,
2013-10-24 09:05:00,41.6,0.0,29.72,NNW,338,1.3,8.5,0,0.00,,,0.00,WUHU216HW,2013-10-24 13:05:00,
2013-10-24 09:10:00,41.8,0.0,29.72,WSW,248,6.3,11.4,0,0.00,,,0.00,WUHU216HW,2013-10-24 13:10:00,
2013-10-24 09:15:00,42.1,0.0,29.72,SW,225,6.0,11.4,0,0.00,,,0.00,WUHU216HW,2013-10-24 13:15:00,
2013-10-24 09:20:00,42.3,0.0,29.72,NW,315,3.1,6.3,0,0.00,,,0.00,WUHU216HW,2013-10-24 13:20:00,
2013-10-24 09:25:00,42.7,0.0,29.72,West,270,2.9,6.7,0,0.00,,,0.00,WUHU216HW,2013-10-24 13:25:00,
2013-10-24 09:30:00,42.8,0.0,29.72,WSW,248,8.1,8.1,0,0.00,,,0.00,WUHU216HW,2013-10-24 13:30:00,
2013-10-24 09:35:00,43.2,0.0,29.72,West,270,6.3,8.1,0,0.00,,,0.00,WUHU216HW,2013-10-24 13:35:00,
2013-10-24 09:40:00,43.4,0.0,29.72,WNW,293,4.7,8.1,0,0.00,,,0.00,WUHU216HW,2013-10-24 13:40:00,
2013-10-24 09:45:00,43.9,0.0,29.72,NW,315,7.6,7.6,0,0.00,,,0.00,WUHU216HW,2013-10-24 13:45:00,
2013-10-24 09:50:00,44.5,0.0,29.72,SW,225,3.8,8.9,0,0.00,,,0.00,WUHU216HW,2013-10-24 13:50:00,
2013-10-24 09:55:00,44.6,0.0,29.72,WNW,293,6.7,9.4,0,0.00,,,0.00,WUHU216HW,2013-10-24 13:55:00,
2013-10-24 10:00:00,44.8,0.0,29.72,WNW,293,5.8,9.6,0,0.00,,,0.00,WUHU216HW,2013-10-24 14:00:00,
2013-10-24 10:05:00,45.2,0.0,29.72,SW,225,8.5,11.0,0,0.00,,,0.00,WUHU216HW,2013-10-24 14:05:00,
2013-10-24 10:10:00,45.5,0.0,29.72,WSW,248,5.8,11.6,0,0.00,,,0.00,WUHU216HW,2013-10-24 14:10:00,
2013-10-24 10:15:00,45.9,0.0,29.72,WNW,293,5.8,11.6,0,0.00,,,0.00,WUHU216HW,2013-10-24 14:15:00,
2013-10-24 10:20:00,46.1,0.0,29.72,West,270,8.7,11.2,0,0.00,,,0.00,WUHU216HW,2013-10-24 14:20:00,
2013-10-24 10:25:00,46.1,0.0,29.72,West,270,4.5,9.8,0,0.00,,,0.00,WUHU216HW,2013-10-24 14:25:00,
2013-10-24 10:30:00,46.4,0.0,29.72,NW,315,3.1,11.0,0,0.00,,,0.00,WUHU216HW,2013-10-24 14:30:00,
2013-10-24 10:35:00,47.0,0.0,29.72,South,180,4.0,11.6,0,0.00,,,0.00,WUHU216HW,2013-10-24 14:35:00,
2013-10-24 10:40:00,46.8,0.0,29.72,West,270,8.9,11.6,0,0.00,,,0.00,WUHU216HW,2013-10-24 14:40:00,
2013-10-24 10:45:00,47.2,0.0,29.72,SW,225,4.7,10.1,0,0.00,,,0.00,WUHU216HW,2013-10-24 14:45:00,
2013-10-24 10:50:00,47.9,0.0,29.72,SW,225,5.4,9.2,0,0.00,,,0.00,WUHU216HW,2013-10-24 14:50:00,
2013-10-24 10:55:00,48.1,0.0,29.72,WSW,248,1.8,9.2,0,0.00,,,0.00,WUHU216HW,2013-10-24 14:55:00,
2013-10-24 11:00:00,48.6,0.0,29.72,WSW,248,4.3,8.3,0,0.00,,,0.00,WUHU216HW,2013-10-24 15:00:00,
2013-10-24 11:05:00,49.3,0.0,29.72,WNW,293,7.2,7.2,0,0.00,,,0.00,WUHU216HW,2013-10-24 15:05:00,
2013-10-24 11:10:00,49.9,0.0,29.72,WSW,248,2.5,7.2,0,0.00,,,0.00,WUHU216HW,2013-10-24 15:10:00,
2013-10-24 11:15:00,49.9,0.0,29.72,West,270,9.8,10.7,0,0.00,,,0.00,WUHU216HW,2013-10-24 15:15:00,
2013-10-24 11:20:00,49.0,0.0,29.72,NNW,338,1.8,10.7,0,0.00,,,0.00,WUHU216HW,2013-10-24 15:20:00,
2013-10-24 11:25:00,48.6,0.0,29.72,WNW,293,9.2,9.8,0,0.00,,,0.00,WUHU216HW,2013-10-24 15:25:00,
2013-10-24 11:30:00,49.0,0.0,29.72,WNW,293,5.4,12.8,0,0.00,,,0.00,WUHU216HW,2013-10-24 15:30:00,
2013-10-24 11:35:00,49.3,0.0,29.72,NW,315,7.6,12.8,0,0.00,,,0.00,WUHU216HW,2013-10-24 15:35:00,
2013-10-24 11:40:00,49.9,0.0,29.72,WNW,293,7.4,12.1,0,0.00,,,0.00,WUHU216HW,2013-10-24 15:40:00,
2013-10-24 11:45:00,50.6,0.0,29.72,WSW,248,4.3,12.1,0,0.00,,,0.00,WUHU216HW,2013-10-24 15:45:00,
2013-10-24 11:50:00,51.3,0.0,29.72,WNW,293,1.8,8.5,0,0.00,,,0.00,WUHU216HW,2013-10-24 15:50:00,
2013-10-24 11:55:00,52.4,0.0,29.72,West,270,7.6,8.9,0,0.00,,,0.00,WUHU216HW,2013-10-24 15:55:00,
2013-10-24 12:00:00,52.6,0.0,29.71,West,270,7.6,8.9,0,0.00,,,0.00,WUHU216HW,2013-10-24 16:00:00,
2013-10-24 12:05:00,52.2,0.0,29.71,North,0,3.4,7.6,0,0.00,,,0.00,WUHU216HW,2013-10-24 16:05:00,
2013-10-24 12:10:00,51.7,0.0,29.72,West,270,11.4,11.4,0,0.00,,,0.00,WUHU216HW,2013-10-24 16:10:00,
2013-10-24 12:15:00,51.5,0.0,29.71,SW,225,8.5,11.4,0,0.00,,,0.00,WUHU216HW,2013-10-24 16:15:00,
2013-10-24 12:20:00,51.8,0.0,29.71,West,270,3.4,11.4,0,0.00,,,0.00,WUHU216HW,2013-10-24 16:20:00,
2013-10-24 12:25:00,51.5,0.0,29.71,NW,315,3.8,9.2,0,0.00,,,0.00,WUHU216HW,2013-10-24 16:25:00,
2013-10-24 12:30:00,51.1,0.0,29.70,WNW,293,9.2,14.1,0,0.00,,,0.00,WUHU216HW,2013-10-24 16:30:00,
2013-10-24 12:35:00,50.6,0.0,29.70,West,270,4.9,14.1,0,0.00,,,0.00,WUHU216HW,2013-10-24 16:35:00,
2013-10-24 12:40:00,50.8,0.0,29.70,WSW,248,12.3,12.3,0,0.00,,,0.00,WUHU216HW,2013-10-24 16:40:00,
2013-10-24 12:45:00,50.8,0.0,29.70,SW,225,9.2,12.3,0,0.00,,,0.00,WUHU216HW,2013-10-24 16:45:00,
2013-10-24 12:50:00,50.4,0.0,29.70,NNW,338,9.2,12.3,0,0.00,,,0.00,WUHU216HW,2013-10-24 16:50:00,
2013-10-24 12:55:00,50.2,0.0,29.69,WSW,248,7.2,11.6,0,0.00,,,0.00,WUHU216HW,2013-10-24 16:55:00,
2013-10-24 13:00:00,50.4,0.0,29.69,SW,225,4.3,11.6,0,0.00,,,0.00,WUHU216HW,2013-10-24 17:00:00,
2013-10-24 13:05:00,50.4,0.0,29.69,NW,315,8.5,12.8,0,0.00,,,0.00,WUHU216HW,2013-10-24 17:05:00,
2013-10-24 13:10:00,50.8,0.0,29.69,WSW,248,11.4,12.8,0,0.00,,,0.00,WUHU216HW,2013-10-24 17:10:00,
2013-10-24 13:15:00,51.5,0.0,29.69,NW,315,7.2,11.6,0,0.00,,,0.00,WUHU216HW,2013-10-24 17:15:00,
2013-10-24 13:20:00,51.5,0.0,29.69,West,270,9.8,13.2,0,0.00,,,0.00,WUHU216HW,2013-10-24 17:20:00,
2013-10-24 13:25:00,51.3,0.0,29.69,West,270,4.9,13.4,0,0.00,,,0.00,WUHU216HW,2013-10-24 17:25:00,
2013-10-24 13:30:00,51.5,0.0,29.68,SW,225,2.5,13.4,0,0.00,,,0.00,WUHU216HW,2013-10-24 17:30:00,
2013-10-24 13:35:00,52.2,0.0,29.68,West,270,5.8,11.2,0,0.00,,,0.00,WUHU216HW,2013-10-24 17:35:00,
2013-10-24 13:40:00,52.6,0.0,29.69,West,270,2.9,11.2,0,0.00,,,0.00,WUHU216HW,2013-10-24 17:40:00,
2013-10-24 13:45:00,53.1,0.0,29.68,West,270,6.9,9.6,0,0.00,,,0.00,WUHU216HW,2013-10-24 17:45:00,
2013-10-24 13:50:00,53.1,0.0,29.68,West,270,11.4,13.6,0,0.00,,,0.00,WUHU216HW,2013-10-24 17:50:00,
2013-10-24 13:55:00,52.9,0.0,29.68,NNW,338,9.8,13.6,0,0.00,,,0.00,WUHU216HW,2013-10-24 17:55:00,
2013-10-24 14:00:00,52.7,0.0,29.68,NW,315,6.5,11.4,0,0.00,,,0.00,WUHU216HW,2013-10-24 18:00:00,
2013-10-24 14:05:00,52.9,0.0,29.68,SSW,203,5.1,11.4,0,0.00,,,0.00,WUHU216HW,2013-10-24 18:05:00,
2013-10-24 14:10:00,53.1,0.0,29.69,West,270,7.6,13.0,0,0.00,,,0.00,WUHU216HW,2013-10-24 18:10:00,
2013-10-24 14:15:00,52.9,0.0,29.69,NW,315,3.1,13.0,0,0.00,,,0.00,WUHU216HW,2013-10-24 18:15:00,
2013-10-24 14:20:00,52.9,0.0,29.68,WNW,293,5.4,13.6,0,0.00,,,0.00,WUHU216HW,2013-10-24 18:20:00,
2013-10-24 14:25:00,52.7,0.0,29.69,NW,315,6.7,17.2,0,0.00,,,0.00,WUHU216HW,2013-10-24 18:25:00,
2013-10-24 14:30:00,52.7,0.0,29.69,NW,315,4.3,17.2,0,0.00,,,0.00,WUHU216HW,2013-10-24 18:30:00,
2013-10-24 14:35:00,52.7,0.0,29.69,NNW,338,10.5,13.4,0,0.00,,,0.00,WUHU216HW,2013-10-24 18:35:00,
2013-10-24 14:40:00,52.6,0.0,29.69,NW,315,6.3,13.4,0,0.00,,,0.00,WUHU216HW,2013-10-24 18:40:00,
2013-10-24 14:45:00,52.2,0.0,29.69,NW,315,3.1,10.7,0,0.00,,,0.00,WUHU216HW,2013-10-24 18:45:00,
2013-10-24 14:50:00,51.8,0.0,29.69,West,270,4.7,13.0,0,0.00,,,0.00,WUHU216HW,2013-10-24 18:50:00,
2013-10-24 14:55:00,52.2,0.0,29.69,NW,315,7.6,13.4,0,0.00,,,0.00,WUHU216HW,2013-10-24 18:55:00,
2013-10-24 15:01:00,52.2,0.0,29.69,NW,315,5.1,13.4,0,0.00,,,0.00,WUHU216HW,2013-10-24 19:01:00,
2013-10-24 15:06:00,52.0,0.0,29.70,West,270,4.5,8.9,0,0.00,,,0.00,WUHU216HW,2013-10-24 19:06:00,
2013-10-24 15:11:00,51.5,0.0,29.70,WNW,293,13.6,13.6,0,0.00,,,0.00,WUHU216HW,2013-10-24 19:11:00,
2013-10-24 15:16:00,51.1,0.0,29.70,WNW,293,4.7,13.6,0,0.00,,,0.00,WUHU216HW,2013-10-24 19:16:00,
2013-10-24 15:21:00,51.3,0.0,29.70,WNW,293,6.3,13.6,0,0.00,,,0.00,WUHU216HW,2013-10-24 19:21:00,
2013-10-24 15:26:00,51.5,0.0,29.71,West,270,6.7,12.1,0,0.00,,,0.00,WUHU216HW,2013-10-24 19:26:00,
2013-10-24 15:31:00,52.0,0.0,29.71,WNW,293,5.6,12.1,0,0.00,,,0.00,WUHU216HW,2013-10-24 19:31:00,
2013-10-24 15:36:00,51.8,0.0,29.71,WNW,293,4.0,15.9,0,0.00,,,0.00,WUHU216HW,2013-10-24 19:36:00,
2013-10-24 15:41:00,50.9,0.0,29.71,WSW,248,8.1,15.9,0,0.00,,,0.00,WUHU216HW,2013-10-24 19:41:00,
2013-10-24 15:46:00,50.4,0.0,29.71,NW,315,13.0,14.3,0,0.00,,,0.00,WUHU216HW,2013-10-24 19:46:00,
2013-10-24 15:51:00,50.0,0.0,29.71,SW,225,6.9,13.0,0,0.00,,,0.00,WUHU216HW,2013-10-24 19:51:00,
2013-10-24 15:56:00,50.0,0.0,29.71,West,270,8.5,13.0,0,0.00,,,0.00,WUHU216HW,2013-10-24 19:56:00,
2013-10-24 16:01:00,49.9,0.0,29.71,NNW,338,5.4,13.2,0,0.00,,,0.00,WUHU216HW,2013-10-24 20:01:00,
2013-10-24 16:06:00,50.0,0.0,29.71,NW,315,3.4,13.2,0,0.00,,,0.00,WUHU216HW,2013-10-24 20:06:00,
2013-10-24 16:11:00,50.0,0.0,29.71,West,270,4.5,8.1,0,0.00,,,0.00,WUHU216HW,2013-10-24 20:11:00,
2013-10-24 16:16:00,50.4,0.0,29.71,WSW,248,9.4,12.1,0,0.00,,,0.00,WUHU216HW,2013-10-24 20:16:00,
2013-10-24 16:21:00,50.4,0.0,29.71,SW,225,7.4,12.1,0,0.00,,,0.00,WUHU216HW,2013-10-24 20:21:00,
2013-10-24 16:26:00,50.6,0.0,29.71,ESE,113,8.7,11.9,0,0.00,,,0.00,WUHU216HW,2013-10-24 20:26:00,
2013-10-24 16:31:00,50.2,0.0,29.71,WNW,293,9.4,10.1,0,0.00,,,0.00,WUHU216HW,2013-10-24 20:31:00,
2013-10-24 16:36:00,50.0,0.0,29.71,SW,225,5.4,9.4,0,0.00,,,0.00,WUHU216HW,2013-10-24 20:36:00,
2013-10-24 16:40:00,49.9,0.0,29.71,North,0,3.4,9.4,0,0.00,,,0.00,WUHU216HW,2013-10-24 20:40:00,
2013-10-24 16:45:00,49.7,0.0,29.71,NW,315,6.5,8.5,0,0.00,,,0.00,WUHU216HW,2013-10-24 20:45:00,
2013-10-24 16:50:00,49.3,0.0,29.71,WNW,293,2.9,11.2,0,0.00,,,0.00,WUHU216HW,2013-10-24 20:50:00,
2013-10-24 16:55:00,49.3,0.0,29.71,West,270,12.1,12.1,0,0.00,,,0.00,WUHU216HW,2013-10-24 20:55:00,
2013-10-24 17:00:00,49.1,0.0,29.71,West,270,6.3,12.1,0,0.00,,,0.00,WUHU216HW,2013-10-24 21:00:00,
2013-10-24 17:05:00,49.0,0.0,29.72,WSW,248,5.4,12.1,0,0.00,,,0.00,WUHU216HW,2013-10-24 21:05:00,
2013-10-24 17:10:00,49.0,0.0,29.72,SW,225,7.6,11.4,0,0.00,,,0.00,WUHU216HW,2013-10-24 21:10:00,
2013-10-24 17:15:00,49.0,0.0,29.71,SW,225,4.9,11.4,0,0.00,,,0.00,WUHU216HW,2013-10-24 21:15:00,
2013-10-24 17:20:00,48.6,0.0,29.71,SSE,158,3.1,5.6,0,0.00,,,0.00,WUHU216HW,2013-10-24 21:20:00,
2013-10-24 17:25:00,48.6,0.0,29.71,WSW,248,3.1,6.5,0,0.00,,,0.00,WUHU216HW,2013-10-24 21:25:00,
2013-10-24 17:30:00,48.4,0.0,29.72,WNW,293,3.6,6.5,0,0.00,,,0.00,WUHU216HW,2013-10-24 21:30:00,
2013-10-24 17:35:00,48.4,0.0,29.72,West,270,2.7,6.3,0,0.00,,,0.00,WUHU216HW,2013-10-24 21:35:00,
2013-10-24 17:40:00,48.2,0.0,29.72,SW,225,4.0,5.6,0,0.00,,,0.00,WUHU216HW,2013-10-24 21:40:00,
2013-10-24 17:45:00,48.1,0.0,29.72,WNW,293,2.7,8.1,0,0.00,,,0.00,WUHU216HW,2013-10-24 21:45:00,
2013-10-24 17:50:00,47.9,0.0,29.72,West,270,1.8,8.1,0,0.00,,,0.00,WUHU216HW,2013-10-24 21:50:00,
2013-10-24 17:55:00,47.7,0.0,29.73,WNW,293,5.8,7.4,0,0.00,,,0.00,WUHU216HW,2013-10-24 21:55:00,
2013-10-24 18:00:00,47.5,0.0,29.73,SW,225,1.6,7.4,0,0.00,,,0.00,WUHU216HW,2013-10-24 22:00:00,
2013-10-24 18:05:00,47.3,0.0,29.73,WNW,293,2.5,5.8,0,0.00,,,0.00,WUHU216HW,2013-10-24 22:05:00,
2013-10-24 18:10:00,46.8,0.0,29.73,WNW,293,3.1,4.0,0,0.00,,,0.00,WUHU216HW,2013-10-24 22:10:00,
2013-10-24 18:15:00,46.4,0.0,29.73,WSW,248,1.1,4.0,0,0.00,,,0.00,WUHU216HW,2013-10-24 22:15:00,
2013-10-24 18:20:00,46.3,0.0,29.74,WSW,248,6.7,6.7,0,0.00,,,0.00,WUHU216HW,2013-10-24 22:20:00,
2013-10-24 18:25:00,45.7,0.0,29.74,SW,225,1.1,6.7,0,0.00,,,0.00,WUHU216HW,2013-10-24 22:25:00,
2013-10-24 18:30:00,45.4,0.0,29.74,WSW,248,2.5,6.7,0,0.00,,,0.00,WUHU216HW,2013-10-24 22:30:00,
2013-10-24 18:35:00,45.2,0.0,29.74,West,270,2.0,4.3,0,0.00,,,0.00,WUHU216HW,2013-10-24 22:35:00,
2013-10-24 18:40:00,45.0,0.0,29.74,WSW,248,2.7,4.3,0,0.00,,,0.00,WUHU216HW,2013-10-24 22:40:00,
2013-10-24 18:45:00,44.8,0.0,29.74,WSW,248,2.5,3.4,0,0.00,,,0.00,WUHU216HW,2013-10-24 22:45:00,
2013-10-24 18:50:00,44.5,0.0,29.74,WNW,293,1.6,3.4,0,0.00,,,0.00,WUHU216HW,2013-10-24 22:50:00,
2013-10-24 18:55:00,44.3,0.0,29.75,WSW,248,1.3,2.5,0,0.00,,,0.00,WUHU216HW,2013-10-24 22:55:00,
2013-10-24 19:00:00,43.9,0.0,29.75,WSW,248,2.2,2.5,0,0.00,,,0.00,WUHU216HW,2013-10-24 23:00:00,
2013-10-24 19:05:00,43.7,0.0,29.75,SSW,203,0.4,3.1,0,0.00,,,0.00,WUHU216HW,2013-10-24 23:05:00,
2013-10-24 19:10:00,43.6,0.0,29.76,West,270,0.0,3.1,0,0.00,,,0.00,WUHU216HW,2013-10-24 23:10:00,
2013-10-24 19:15:00,43.2,0.0,29.76,WSW,248,1.8,1.8,0,0.00,,,0.00,WUHU216HW,2013-10-24 23:15:00,
2013-10-24 19:20:00,42.8,0.0,29.76,SW,225,0.9,1.8,0,0.00,,,0.00,WUHU216HW,2013-10-24 23:20:00,
2013-10-24 19:25:00,42.5,0.0,29.76,SSW,203,0.9,2.5,0,0.00,,,0.00,WUHU216HW,2013-10-24 23:25:00,
2013-10-24 19:30:00,42.1,0.0,29.76,WNW,293,0.4,2.5,0,0.00,,,0.00,WUHU216HW,2013-10-24 23:30:00,
2013-10-24 19:35:00,41.8,0.0,29.76,WSW,248,0.9,2.0,0,0.00,,,0.00,WUHU216HW,2013-10-24 23:35:00,
2013-10-24 19:40:00,41.4,0.0,29.76,SSW,203,0.4,2.0,0,0.00,,,0.00,WUHU216HW,2013-10-24 23:40:00,
2013-10-24 19:45:00,41.0,0.0,29.77,SW,225,0.4,1.6,0,0.00,,,0.00,WUHU216HW,2013-10-24 23:45:00,
2013-10-24 19:50:00,40.7,0.0,29.77,SW,225,0.7,1.6,0,0.00,,,0.00,WUHU216HW,2013-10-24 23:50:00,
2013-10-24 19:55:00,40.3,0.0,29.77,NW,315,2.9,2.9,0,0.00,,,0.00,WUHU216HW,2013-10-24 23:55:00,
2013-10-24 20:00:00,40.0,0.0,29.77,SSE,158,1.1,2.9,0,0.00,,,0.00,WUHU216HW,2013-10-25 00:00:00,
2013-10-24 20:05:00,40.0,0.0,29.76,SSW,203,3.1,4.0,0,0.00,,,0.00,WUHU216HW,2013-10-25 00:05:00,
2013-10-24 20:10:00,40.0,0.0,29.76,SSE,158,4.3,5.4,0,0.00,,,0.00,WUHU216HW,2013-10-25 00:10:00,
2013-10-24 20:15:00,40.5,0.0,29.77,WSW,248,1.8,5.4,0,0.00,,,0.00,WUHU216HW,2013-10-25 00:15:00,
2013-10-24 20:20:00,41.0,0.0,29.77,West,270,6.5,6.5,0,0.00,,,0.00,WUHU216HW,2013-10-25 00:20:00,
2013-10-24 20:25:00,41.4,0.0,29.77,WNW,293,3.8,6.5,0,0.00,,,0.00,WUHU216HW,2013-10-25 00:25:00,
2013-10-24 20:30:00,41.9,0.0,29.77,WSW,248,5.4,6.5,0,0.00,,,0.00,WUHU216HW,2013-10-25 00:30:00,
2013-10-24 20:35:00,42.1,0.0,29.77,WNW,293,2.0,6.3,0,0.00,,,0.00,WUHU216HW,2013-10-25 00:35:00,
2013-10-24 20:40:00,41.9,0.0,29.77,WNW,293,5.8,5.8,0,0.00,,,0.00,WUHU216HW,2013-10-25 00:40:00,
2013-10-24 20:45:00,41.9,0.0,29.77,West,270,3.4,5.8,0,0.00,,,0.00,WUHU216HW,2013-10-25 00:45:00,
2013-10-24 20:50:00,41.9,0.0,29.77,SW,225,0.4,5.8,0,0.00,,,0.00,WUHU216HW,2013-10-25 00:50:00,
2013-10-24 20:55:00,41.8,0.0,29.78,WSW,248,1.1,3.4,0,0.00,,,0.00,WUHU216HW,2013-10-25 00:55:00,
2013-10-24 21:00:00,41.4,0.0,29.77,West,270,2.7,4.5,0,0.00,,,0.00,WUHU216HW,2013-10-25 01:00:00,
2013-10-24 21:05:00,40.9,0.0,29.77,WSW,248,2.5,4.5,0,0.00,,,0.00,WUHU216HW,2013-10-25 01:05:00,
2013-10-24 21:10:00,40.5,0.0,29.77,WSW,248,1.8,3.4,0,0.00,,,0.00,WUHU216HW,2013-10-25 01:10:00,
2013-10-24 21:15:00,40.3,0.0,29.78,West,270,1.1,2.5,0,0.00,,,0.00,WUHU216HW,2013-10-25 01:15:00,
2013-10-24 21:20:00,40.3,0.0,29.78,WSW,248,0.4,1.8,0,0.00,,,0.00,WUHU216HW,2013-10-25 01:20:00,
2013-10-24 21:25:00,40.3,0.0,29.78,West,270,1.6,4.3,0,0.00,,,0.00,WUHU216HW,2013-10-25 01:25:00,
2013-10-24 21:30:00,40.3,0.0,29.78,WNW,293,3.1,4.3,0,0.00,,,0.00,WUHU216HW,2013-10-25 01:30:00,
2013-10-24 21:35:00,40.3,0.0,29.78,WNW,293,1.8,5.1,0,0.00,,,0.00,WUHU216HW,2013-10-25 01:35:00,
2013-10-24 21:40:00,40.5,0.0,29.78,SW,225,2.9,5.1,0,0.00,,,0.00,WUHU216HW,2013-10-25 01:40:00,
2013-10-24 21:45:00,40.3,0.0,29.79,West,270,4.5,4.7,0,0.00,,,0.00,WUHU216HW,2013-10-25 01:45:00,
2013-10-24 21:50:00,40.1,0.0,29.79,WSW,248,3.4,4.5,0,0.00,,,0.00,WUHU216HW,2013-10-25 01:50:00,
2013-10-24 21:55:00,40.0,0.0,29.79,WSW,248,0.7,4.5,0,0.00,,,0.00,WUHU216HW,2013-10-25 01:55:00,
2013-10-24 22:00:00,39.8,0.0,29.79,WNW,293,1.8,3.4,0,0.00,,,0.00,WUHU216HW,2013-10-25 02:00:00,
2013-10-24 22:05:00,39.6,0.0,29.79,SW,225,5.6,5.6,0,0.00,,,0.00,WUHU216HW,2013-10-25 02:05:00,
2013-10-24 22:10:00,39.6,0.0,29.79,WSW,248,4.0,6.3,0,0.00,,,0.00,WUHU216HW,2013-10-25 02:10:00,
2013-10-24 22:15:00,39.6,0.0,29.79,West,270,4.0,6.3,0,0.00,,,0.00,WUHU216HW,2013-10-25 02:15:00,
2013-10-24 22:20:00,39.6,0.0,29.79,West,270,2.9,4.0,0,0.00,,,0.00,WUHU216HW,2013-10-25 02:20:00,
2013-10-24 22:25:00,39.6,0.0,29.79,SSW,203,2.9,5.8,0,0.00,,,0.00,WUHU216HW,2013-10-25 02:25:00,
2013-10-24 22:30:00,39.8,0.0,29.80,WSW,248,1.1,5.8,0,0.00,,,0.00,WUHU216HW,2013-10-25 02:30:00,
2013-10-24 22:35:00,39.6,0.0,29.79,WNW,293,2.0,5.1,0,0.00,,,0.00,WUHU216HW,2013-10-25 02:35:00,
2013-10-24 22:40:00,39.6,0.0,29.80,WSW,248,1.1,10.3,0,0.00,,,0.00,WUHU216HW,2013-10-25 02:40:00,
2013-10-24 22:45:00,39.6,0.0,29.80,WSW,248,0.7,10.3,0,0.00,,,0.00,WUHU216HW,2013-10-25 02:45:00,
2013-10-24 22:50:00,39.4,0.0,29.80,WNW,293,3.4,3.4,0,0.00,,,0.00,WUHU216HW,2013-10-25 02:50:00,
2013-10-24 22:55:00,39.4,0.0,29.80,SW,225,1.1,3.4,0,0.00,,,0.00,WUHU216HW,2013-10-25 02:55:00,
2013-10-24 23:00:00,39.2,0.0,29.80,WSW,248,1.6,3.4,0,0.00,,,0.00,WUHU216HW,2013-10-25 03:00:00,
2013-10-24 23:05:00,38.9,0.0,29.80,WNW,293,3.6,3.6,0,0.00,,,0.00,WUHU216HW,2013-10-25 03:05:00,
2013-10-24 23:10:00,38.9,0.0,29.80,WSW,248,0.7,3.6,0,0.00,,,0.00,WUHU216HW,2013-10-25 03:10:00,
2013-10-24 23:15:00,38.9,0.0,29.81,WSW,248,1.1,3.6,0,0.00,,,0.00,WUHU216HW,2013-10-25 03:15:00,
2013-10-24 23:20:00,38.5,0.0,29.81,SW,225,0.2,3.1,0,0.00,,,0.00,WUHU216HW,2013-10-25 03:20:00,
2013-10-24 23:25:00,38.2,0.0,29.81,WSW,248,1.1,2.5,0,0.00,,,0.00,WUHU216HW,2013-10-25 03:25:00,
2013-10-24 23:30:00,37.8,0.0,29.81,West,270,0.4,2.5,0,0.00,,,0.00,WUHU216HW,2013-10-25 03:30:00,
2013-10-24 23:35:00,37.6,0.0,29.81,WNW,293,1.6,1.8,0,0.00,,,0.00,WUHU216HW,2013-10-25 03:35:00,
2013-10-24 23:40:00,37.4,0.0,29.81,WNW,293,1.1,2.2,0,0.00,,,0.00,WUHU216HW,2013-10-25 03:40:00,
2013-10-24 23:45:00,37.3,0.0,29.81,West,270,1.1,2.2,0,0.00,,,0.00,WUHU216HW,2013-10-25 03:45:00,
2013-10-24 23:50:00,37.1,0.0,29.81,WSW,248,0.4,2.9,0,0.00,,,0.00,WUHU216HW,2013-10-25 03:50:00,
2013-10-24 23:55:00,36.7,0.0,29.81,West,270,3.8,3.8,0,0.00,,,0.00,WUHU216HW,2013-10-25 03:55:00,